FENGYUN 1C DEB, 30364

Orbit data source: Space-Track

FENGYUN 1C DEB, 30364 is space debris in SSO originally from a launch on Mon, 10 May 1999 UTC launched from the Taiyaun Space Center, China (TSC). Fengyun 1C debris stems from the Chinese weather satellite Fengyun-1C, which was intentionally destroyed by a Chinese anti-satellite missile in 2007. This event dramatically increased the amount of space debris, with thousands of trackable fragments posing hazards to satellites and human spaceflight. The Fengyun 1C debris cloud has become a focal point in discussions about space sustainability and the need for international regulations to prevent the creation of new debris.

Loading next visibility...
Identifier
30364, 1999-025ACB
Orbit
SSO
Country
Flag of CNCN / PRC
Related business
Manufacturer
Unknown
Mission
Spacecraft
Bus & Motor
Unknown
Mass
Unknown
Launch date (UTC)
1999-05-10 (27 years ago)
Launch vehicle
Unknown
Launch site
Taiyaun Space Center, China (TSC)
Object type
Payload
Rocket body
Debris
Shape & HBR
Unknown shape, 0.1 m
Radar Cross Section
Small (<0.1 m²)

Expand to show TLE details & history
Last TLE update: 1 day ago

TLE from 1 day ago
0 FENGYUN 1C DEB
1 30364U 99025ACB 26166.54967885  .00004197  00000-0  11881-2 0  9996
2 30364  98.1338  73.0418 0323388 138.6842 345.8497 14.19569265982616
Epoch: 2026-06-15T13:11Z
TLE epoch observation values (Epoch: 2026-06-15T13:11:32.252Z)
Latitude
55.65436°
Longitude
163.32893°
Altitude
610.541 km
Speed
7.677 km/s
True Right ascension
17h 40m 11s
True Declination
55° 29' 26"
Sunlit
Object was in daylight at epoch
Visualization orbit readout
Latitude
Unknown
Longitude
Unknown
Altitude
Unknown
Speed
Unknown
Apparent Right ascension
Unknown
Apparent Declination
Unknown
Sunlit
N/A
Visualization observer readout
Local Sidereal Time
02:07:23
Azimuth
Unknown
Elevation
Unknown
Doppler factor
Unknown
Orbital elements
Apogee altitude
1,056.844 km
Perigee altitude
591.031 km
Semi-major axis
7,202.075 km
Eccentricity
0.03234
Inclination
98.1338°
RAAN
73.0418°
Arg. of periapsis
138.6842°
True anomaly
344.90692°
Mean anomaly
345.8497°
Eccentric anomaly
345.38209°
Mean motion
3.55105 °/min
Orbital period
101.38 mins
BSTAR
0.0011881
Loading maneuver chart data...
Computing Atmospheric mass density...

Documentation

Showing up to 5 results
|